Tel Aviv, Israel

8:03 AM IST on November 18, 2017 (GMT +0200)
Ben Gurion

Weather History for LLBG - September, 2017

Change the Weather History Date:

Thursday, September 14, 2017

  Actual Average Record
Temperature  
Mean Temperature 82 °F -  
Max Temperature 88 °F 83 °F 92 °F (2013)
Min Temperature 75 °F 67 °F 66 °F (1997)
Cooling Degree Days 16    
Growing Degree Days 32 (Base 50)    
Moisture  
Dew Point 72 °F    
Average Humidity 71    
Maximum Humidity 83    
Minimum Humidity 54    
Precipitation  
Precipitation 0.00 in - - ()
Sea Level Pressure  
Sea Level Pressure 29.82 in    
Wind  
Wind Speed 5 mph ()    
Max Wind Speed 15 mph    
Max Gust Speed -    
Visibility 6.2 miles    
Events      
Averages and records for this station are not official NWS values.
T = Trace of Precipitation, MM = Missing Value Source: Averaged Metar Reports

Daily Weather History Graph

Daily Weather History Graph

Search for Another Location

Airport or City:

Trip Planner

Search our weather history database for the weather conditions in past years. The results will help you decide how hot, cold, wet, or windy it might be!

Date:

Astronomy

Sep. 14, 2017 Rise Set
Actual Time 6:23 AM IDT 6:47 PM IDT
Civil Twilight 5:59 AM IDT 7:12 PM IDT
Nautical Twilight 5:30 AM IDT 7:40 PM IDT
Astronomical Twilight 5:01 AM IDT 8:09 PM IDT
Moon 12:16 AM IDT (9/14) 2:28 PM IDT (9/14)
Length of Visible Light 13h 13m
Length of Day
12h 24m
Last Quarter, 38% of the Moon is Illuminated
Sep 14
Last Quarter
Sep 20
New
Sep 28
First Quarter
Oct 5
Full
Oct 12
Last Quarter

Hourly Weather History & Observations

Time (IDT) Temp. Heat Index Dew Point Humidity Pressure Visibility Wind Dir Wind Speed Gust Speed Precip Events Conditions
12:00 AM 79 °F - 73 °F 76% 29.89 in 6 mi 2.3 mph - -   Partly Cloudy
12:20 AM 78.8 °F - 71.6 °F 78% 29.89 in 6.2 mi Variable 3.5 mph - N/A   Mostly Cloudy
12:50 AM 78.8 °F - 71.6 °F 78% 29.89 in 6.2 mi SE 5.8 mph - N/A   Mostly Cloudy
1:20 AM 78.8 °F - 71.6 °F 78% 29.89 in 6.2 mi SSE 4.6 mph - N/A   Mostly Cloudy
1:50 AM 78.8 °F - 71.6 °F 78% 29.89 in 6.2 mi ESE 4.6 mph - N/A   Scattered Clouds
2:20 AM 78.8 °F - 71.6 °F 78% 29.86 in 6.2 mi Variable 3.5 mph - N/A   Mostly Cloudy
2:50 AM 77.0 °F - 69.8 °F 78% 29.86 in 6.2 mi Variable 2.3 mph - N/A   Scattered Clouds
3:00 AM 78 °F - 70 °F 70% 29.86 in 6 mi 2.3 mph - -   Partly Cloudy
3:20 AM 77.0 °F - 69.8 °F 78% 29.86 in 6.2 mi SSE 4.6 mph - N/A   Scattered Clouds
3:50 AM 77.0 °F - 69.8 °F 78% 29.86 in 6.2 mi Variable 2.3 mph - N/A   Scattered Clouds
4:20 AM 75.2 °F - 69.8 °F 83% 29.86 in 6.2 mi Variable 2.3 mph - N/A   Scattered Clouds
4:50 AM 77.0 °F - 69.8 °F 78% 29.86 in 6.2 mi Variable 2.3 mph - N/A   Mostly Cloudy
5:20 AM 77.0 °F - 69.8 °F 78% 29.86 in 6.2 mi Variable 3.5 mph - N/A   Mostly Cloudy
5:50 AM 77.0 °F - 68.0 °F 74% 29.86 in 6.2 mi Variable 3.5 mph - N/A   Scattered Clouds
6:00 AM 78 °F - 69 °F 67% 29.87 in 6 mi 3.5 mph - -   Mostly Cloudy
6:20 AM 77.0 °F - 68.0 °F 74% 29.86 in 6.2 mi Variable 3.5 mph - N/A   Scattered Clouds
6:50 AM 77.0 °F - 69.8 °F 78% 29.86 in 6.2 mi Variable 3.5 mph - N/A   Scattered Clouds
7:20 AM 78.8 °F - 69.8 °F 74% 29.86 in 6.2 mi Variable 2.3 mph - N/A   Scattered Clouds
7:50 AM 78.8 °F - 69.8 °F 74% 29.86 in 6.2 mi ESE 4.6 mph - N/A   Partly Cloudy
8:20 AM 82.4 °F 86.3 °F 69.8 °F 66% 29.86 in 6.2 mi Variable 2.3 mph - N/A   Partly Cloudy
8:50 AM 82.4 °F 88.2 °F 73.4 °F 74% 29.86 in 6.2 mi Variable 3.5 mph - N/A   Partly Cloudy
9:00 AM 82 °F - 72 °F 66% 29.86 in 6 mi 3.5 mph - -   Scattered Clouds
9:20 AM 84.2 °F 90.9 °F 73.4 °F 70% 29.86 in 6.2 mi North 5.8 mph - N/A   Scattered Clouds
9:50 AM 84.2 °F 89.6 °F 71.6 °F 66% 29.86 in 6.2 mi NNW 5.8 mph - N/A   Scattered Clouds
10:20 AM 86.0 °F 91.8 °F 71.6 °F 62% 29.86 in 6.2 mi NW 8.1 mph - N/A   Scattered Clouds
10:50 AM 86.0 °F 91.8 °F 71.6 °F 62% 29.83 in 6.2 mi NW 8.1 mph - N/A   Scattered Clouds
11:20 AM 86.0 °F 91.8 °F 71.6 °F 62% 29.83 in 6.2 mi NW 9.2 mph - N/A   Scattered Clouds
11:50 AM 87.8 °F 95.6 °F 73.4 °F 62% 29.83 in 6.2 mi WNW 11.5 mph - N/A   Scattered Clouds
12:00 PM 87 °F - 72 °F 54% 29.83 in 6 mi WNW 12.7 mph - -   Partly Cloudy
12:20 PM 87.8 °F 95.6 °F 73.4 °F 62% 29.83 in 6.2 mi WNW 11.5 mph - N/A   Scattered Clouds
12:50 PM 87.8 °F 95.6 °F 73.4 °F 62% 29.80 in 6.2 mi WNW 10.4 mph - N/A   Scattered Clouds
1:20 PM 87.8 °F 93.8 °F 71.6 °F 58% 29.80 in 6.2 mi WNW 12.7 mph - N/A   Scattered Clouds
1:50 PM 87.8 °F 95.6 °F 73.4 °F 62% 29.80 in 6.2 mi WNW 11.5 mph - N/A   Partly Cloudy
2:20 PM 87.8 °F 95.6 °F 73.4 °F 62% 29.80 in 6.2 mi WNW 11.5 mph - N/A   Partly Cloudy
2:50 PM 86.0 °F 93.4 °F 73.4 °F 66% 29.77 in 6.2 mi WNW 15.0 mph - N/A   Scattered Clouds
3:00 PM 86 °F - 73 °F 58% 29.78 in 6 mi WNW 15.0 mph - -   Partly Cloudy
3:20 PM 86.0 °F 93.4 °F 73.4 °F 66% 29.77 in 6.2 mi NW 13.8 mph - N/A   Scattered Clouds
3:50 PM 86.0 °F 93.4 °F 73.4 °F 66% 29.77 in 6.2 mi WNW 12.7 mph - N/A   Scattered Clouds
4:20 PM 84.2 °F 89.6 °F 71.6 °F 66% 29.77 in 6.2 mi NW 12.7 mph - N/A   Scattered Clouds
4:50 PM 84.2 °F 89.6 °F 71.6 °F 66% 29.77 in 6.2 mi NW 12.7 mph - N/A   Partly Cloudy
5:20 PM 84.2 °F 89.6 °F 71.6 °F 66% 29.77 in 6.2 mi NW 11.5 mph - N/A   Partly Cloudy
5:50 PM 84.2 °F 89.6 °F 71.6 °F 66% 29.77 in 6.2 mi NW 9.2 mph - N/A   Partly Cloudy
6:00 PM 83 °F - 72 °F 61% 29.77 in 6 mi NW 9.2 mph - -   Scattered Clouds
6:20 PM 82.4 °F 87.2 °F 71.6 °F 70% 29.77 in 6.2 mi WNW 10.4 mph - N/A   Partly Cloudy
6:50 PM 82.4 °F 87.2 °F 71.6 °F 70% 29.77 in 6.2 mi WNW 8.1 mph - N/A   Partly Cloudy
7:20 PM 82.4 °F 87.2 °F 71.6 °F 70% 29.77 in 6.2 mi WNW 5.8 mph - N/A   Partly Cloudy
7:50 PM 80.6 °F 84.6 °F 71.6 °F 74% 29.77 in 6.2 mi Variable 3.5 mph - N/A   Scattered Clouds
8:20 PM 80.6 °F 85.4 °F 73.4 °F 79% 29.77 in 6.2 mi Variable 3.5 mph - N/A   Scattered Clouds
8:50 PM 82.4 °F 88.2 °F 73.4 °F 74% 29.80 in 6.2 mi Variable 3.5 mph - N/A   Scattered Clouds
9:00 PM 82 °F - 73 °F 67% 29.79 in 6 mi 3.5 mph - -   Partly Cloudy
9:20 PM 80.6 °F 85.4 °F 73.4 °F 79% 29.80 in 6.2 mi Variable 3.5 mph - N/A   Scattered Clouds
9:50 PM 80.6 °F 85.4 °F 73.4 °F 79% 29.80 in 6.2 mi SW 4.6 mph - N/A   Partly Cloudy
10:20 PM 80.6 °F 85.4 °F 73.4 °F 79% 29.80 in 6.2 mi Variable 3.5 mph - N/A   Scattered Clouds
10:50 PM 80.6 °F 85.4 °F 73.4 °F 79% 29.80 in 6.2 mi SSW 4.6 mph - N/A   Scattered Clouds
11:20 PM 80.6 °F 85.4 °F 73.4 °F 79% 29.80 in 6.2 mi Variable 3.5 mph - N/A   Scattered Clouds
11:50 PM 80.6 °F 84.6 °F 71.6 °F 74% 29.80 in 6.2 mi South 6.9 mph - N/A   Scattered Clouds